Theta_e
308 309 309 309 309 309 309 310 309 309 309 309 309 309 310 310 310 310 310 309 310 309 309 309 309 309 309 309 309 310 310 310 310 310 309 309 309 309 309 309 308 307 307 307 307 306 304 304 304 305 305 304 302 302 302 302 302 301 301 300 299 299 298 296 294 294 297 300 299 299 298 294 292 291 291 290 289 289 290 290 290 289 290 290 290
306 306 307 307 307 307 307 307 307 307 307 307 307 308 307 308 308 307 307 307 307 307 307 308 308 308 308 308 308 308 308 309 309 309 308 308 307 308 308 307 307 307 307 306 306 306 305 303 303 303 303 301 300 299 301 302 301 301 300 299 298 298 298 296 295 294 293 296 297 298 294 291 293 291 290 290 289 289 288 288 288 288 288 289 289
305 306 306 306 305 305 305 305 305 305 305 305 305 305 305 305 305 305 305 305 305 305 305 305 305 306 306 306 306 306 307 307 307 307 307 307 306 306 307 306 305 305 305 305 305 305 302 301 300 301 302 299 298 299 299 298 298 297 298 298 297 298 298 297 295 293 293 295 297 297 297 293 291 293 291 291 292 290 288 287 287 287 287 288 288
304 305 305 304 304 304 304 303 303 303 303 304 302 303 302 302 302 302 302 303 303 303 304 304 303 303 303 303 303 303 303 303 304 305 305 305 305 305 305 304 304 303 303 303 302 301 300 299 299 298 298 298 298 298 299 298 297 297 297 297 298 297 298 297 296 295 295 294 296 296 297 293 290 290 290 288 288 287 287 287 286 286 286 286 287
304 304 305 304 303 303 302 302 301 301 301 301 301 301 301 301 301 301 301 301 302 302 302 302 301 300 300 300 300 301 301 302 302 302 302 303 303 303 302 302 302 302 301 300 297 298 298 298 298 298 297 297 297 296 296 296 296 296 296 296 296 296 296 295 295 294 293 292 293 295 295 295 292 289 288 286 285 285 285 285 285 285 285 285 286
303 303 303 303 301 300 300 300 299 299 299 299 299 299 300 300 300 300 300 300 300 300 300 300 300 299 299 299 299 299 299 299 300 300 300 301 301 301 301 301 300 300 299 298 298 298 298 297 297 297 297 296 296 296 296 296 296 295 295 295 295 295 294 294 294 293 293 293 292 292 293 293 292 289 286 286 285 284 284 284 284 284 284 283 284
301 301 301 301 300 298 298 298 298 298 298 298 298 298 298 298 298 298 298 298 298 298 299 298 299 299 299 299 298 298 299 299 299 299 300 300 300 299 299 299 298 298 298 298 298 298 298 297 297 297 297 297 296 296 296 295 295 295 295 295 295 294 293 293 293 292 292 291 292 293 292 293 293 291 288 285 285 286 285 283 282 283 283 283 282
299 299 299 298 297 297 297 297 296 296 297 297 297 297 297 297 297 297 297 297 297 297 297 297 298 298 298 298 298 299 298 298 298 298 299 299 298 298 298 297 297 297 297 297 297 297 297 297 297 297 297 297 297 297 296 295 295 295 295 295 294 293 293 293 292 292 291 291 291 291 292 291 291 290 286 283 283 283 284 284 284 284 283 282 283
298 297 297 296 296 296 296 296 296 296 295 295 295 295 295 295 295 295 296 296 297 297 297 296 296 296 297 297 297 298 298 297 298 297 297 297 298 297 297 297 297 296 296 296 296 296 296 297 297 297 296 293 293 294 295 295 297 295 295 294 294 293 292 292 292 291 291 291 290 291 290 290 291 290 286 283 283 284 285 284 284 285 285 283 282
296 296 295 295 295 295 295 295 294 294 294 294 293 293 294 294 294 294 294 294 295 295 295 295 295 295 295 296 296 297 297 298 294 292 293 295 295 295 295 295 295 296 295 295 295 296 296 297 297 291 291 290 291 291 293 293 293 295 296 295 294 292 291 291 291 291 291 290 290 290 289 289 290 290 290 289 287 286 284 283 282 284 283 282 282
295 294 294 294 294 294 294 294 294 293 293 292 292 292 292 292 292 292 292 293 293 294 294 294 294 295 295 295 295 296 297 297 293 294 294 294 293 294 293 294 294 294 294 294 294 294 295 295 296 293 291 290 291 290 292 292 292 293 292 292 293 294 292 291 290 290 290 290 290 290 290 289 291 291 291 291 288 285 284 284 283 283 281 280 279
294 294 293 293 293 293 293 293 293 292 291 291 291 290 291 289 289 290 290 291 291 293 292 293 293 294 294 294 294 295 295 293 294 294 294 294 292 292 293 293 293 293 294 294 294 294 294 294 295 295 295 295 295 294 292 291 291 292 292 292 292 292 293 291 291 290 290 289 289 290 290 290 291 291 291 290 289 286 285 284 284 283 281 280 281
294 293 293 293 292 292 292 292 292 291 290 290 289 289 289 289 289 289 289 289 290 291 290 292 293 293 293 293 293 293 293 293 293 293 293 293 293 292 292 292 292 292 293 293 293 293 293 293 293 293 294 290 290 293 294 294 292 291 291 291 291 292 293 293 293 291 291 290 289 289 290 291 290 291 292 291 290 287 286 284 283 283 283 282 282
293 292 292 292 291 291 291 289 290 290 289 289 289 288 288 288 288 288 289 289 288 290 289 290 289 291 291 291 291 291 291 291 292 292 292 292 292 292 291 291 291 291 292 292 292 292 293 292 292 292 293 293 293 293 293 293 293 293 292 292 292 291 290 291 291 291 290 291 290 289 292 293 291 292 292 292 289 288 287 285 284 283 283 282 284
292 291 291 290 290 290 289 289 288 288 289 288 287 287 288 287 287 288 288 289 288 288 289 288 288 288 289 289 290 290 290 291 291 291 292 292 292 292 291 291 291 291 292 292 292 292 293 293 293 292 293 293 293 293 292 293 291 290 290 289 291 292 292 292 291 291 291 291 291 291 292 293 293 293 292 290 289 290 289 288 287 285 285 285 284
290 290 289 289 289 289 288 288 288 288 287 287 287 287 287 286 286 287 288 288 288 288 288 288 287 287 288 288 288 287 289 290 291 291 291 291 292 289 290 290 290 290 290 291 291 292 292 292 292 292 292 292 292 292 292 292 290 289 289 289 289 290 291 291 292 292 292 292 292 292 292 292 292 291 291 291 290 289 288 287 286 285 283 281 280
288 289 288 288 288 288 287 287 286 286 286 286 285 286 286 286 286 287 286 287 287 287 287 287 287 287 287 287 287 287 288 289 290 290 290 291 290 288 288 288 288 288 289 290 290 291 291 291 291 291 291 291 291 292 293 291 289 288 288 288 288 288 289 290 292 292 292 292 292 293 293 293 294 294 294 294 292 290 287 285 284 284 281 280 280
287 287 287 287 287 287 286 286 285 285 285 284 285 285 285 286 286 287 286 286 286 286 287 287 287 287 287 286 286 286 286 287 288 289 289 290 289 287 287 287 287 287 288 289 289 290 290 288 288 290 290 290 291 292 293 291 288 288 288 287 287 287 288 289 290 290 291 291 291 291 292 292 292 293 293 294 293 292 287 284 285 285 281 282 280
285 285 285 286 286 285 285 284 284 283 283 284 284 284 284 285 286 286 286 286 286 287 287 287 286 286 286 286 286 286 286 286 288 288 289 289 288 287 287 287 286 287 287 288 288 289 290 289 288 288 289 290 291 292 292 290 288 288 288 287 287 286 288 289 288 288 288 288 288 288 288 289 289 289 289 290 291 290 290 287 287 285 282 282 282
284 284 285 285 284 284 284 283 282 282 282 282 283 284 284 285 284 284 284 285 286 286 286 285 284 285 286 286 286 286 286 286 287 288 289 289 290 287 287 286 285 286 286 287 287 287 288 288 289 290 291 291 292 292 292 292 289 288 288 287 287 286 288 288 288 288 288 288 288 288 288 288 288 288 287 288 288 288 289 289 288 286 285 283 282
282 283 283 283 282 281 282 282 280 281 281 282 282 283 283 283 283 283 283 284 284 284 283 284 284 285 286 286 286 286 286 286 287 288 289 289 290 288 286 286 286 286 286 286 286 286 287 287 288 289 291 291 291 291 291 291 291 289 288 287 287 288 289 288 288 287 287 287 287 287 287 288 287 287 287 287 287 287 288 288 288 287 286 284 283
281 281 281 280 280 279 279 279 280 280 281 281 280 281 282 282 282 282 283 283 282 282 283 284 285 286 286 286 286 287 287 287 287 287 288 289 289 289 287 286 286 286 285 285 286 286 286 287 287 288 289 290 290 290 290 291 290 288 288 290 290 290 289 288 288 288 288 288 287 287 287 287 286 286 286 287 287 287 287 287 287 287 287 286 285
278 279 279 277 277 278 278 277 278 279 279 280 279 280 281 281 281 282 282 282 283 282 283 284 284 285 285 286 287 287 287 287 287 287 288 289 289 289 289 288 288 287 285 284 285 285 287 287 287 287 288 288 289 289 289 289 288 287 289 290 290 290 289 288 288 287 287 287 287 286 286 286 286 286 286 286 287 287 287 287 286 286 286 286 286
277 276 276 276 276 276 276 277 278 279 278 278 279 279 280 281 281 283 283 283 283 283 284 284 284 284 284 285 286 287 287 287 287 287 287 288 289 289 290 290 290 287 286 285 286 286 286 286 286 287 288 288 288 288 288 287 286 288 288 288 288 288 288 287 287 287 286 286 286 285 285 286 286 285 286 286 286 286 286 286 286 286 286 285 285
275 274 274 275 275 275 275 276 277 277 277 278 278 278 278 279 280 281 281 282 282 282 283 283 283 283 284 284 285 286 286 286 286 286 286 286 288 289 289 289 289 289 286 286 286 286 286 287 287 287 287 287 287 287 287 286 287 287 287 287 286 286 286 286 286 286 285 285 285 285 285 286 286 286 286 286 286 286 285 285 286 286 285 285 285
272 272 272 273 274 275 274 276 276 276 276 277 277 278 278 278 279 279 280 281 281 281 281 281 282 282 282 283 283 284 284 285 285 286 286 286 287 288 288 287 286 286 285 285 285 286 287 287 287 286 286 286 285 285 285 285 286 286 286 285 285 286 286 286 286 285 285 285 285 285 285 286 286 286 286 286 285 284 284 284 284 283 283 283 282
271 271 271 272 274 274 274 274 274 275 276 276 276 277 278 278 278 278 279 279 279 279 279 280 280 280 280 281 281 282 282 283 284 284 285 286 286 285 285 285 285 285 285 285 285 286 286 286 286 286 286 286 286 285 285 285 285 285 285 285 285 285 286 286 285 285 285 285 285 285 286 286 287 286 285 284 283 284 284 283 282 282 282 282 281
270 270 270 272 272 273 273 273 273 274 274 274 274 275 276 277 277 277 277 277 277 277 278 278 278 279 279 279 280 280 280 281 282 283 283 284 283 284 284 284 284 284 284 285 285 285 285 285 285 285 285 285 285 285 285 285 285 285 285 285 286 286 286 286 286 286 286 286 286 286 286 286 285 284 284 283 283 283 284 283 282 281 282 281 279
269 270 270 271 271 272 271 272 272 272 273 273 274 275 275 275 275 276 277 278 278 277 277 277 278 279 279 278 278 278 278 279 281 284 283 284 283 283 283 283 283 283 284 285 284 284 284 283 283 283 283 283 283 283 284 284 285 285 285 285 285 286 286 285 284 285 285 285 285 285 284 285 284 284 283 283 282 282 283 282 282 281 281 280 279
269 269 270 270 270 269 270 271 271 271 271 271 272 273 276 277 276 275 275 278 279 279 279 278 278 278 278 278 279 278 278 280 283 283 284 284 284 284 284 284 284 283 283 284 283 282 281 281 282 282 282 282 282 283 283 284 284 284 285 285 285 285 285 285 285 285 285 285 285 284 284 284 283 283 283 282 282 282 282 282 281 281 279 278 278
268 269 269 268 268 268 269 269 270 270 271 271 271 271 271 273 276 277 277 277 278 278 279 279 280 280 279 278 279 282 282 282 282 283 283 283 283 283 283 283 283 284 284 282 281 280 280 280 281 281 282 282 282 282 283 283 284 284 284 284 285 285 285 285 285 285 285 284 284 284 284 283 283 283 282 282 282 281 281 282 281 280 279 278 277
266 266 266 266 267 268 268 268 269 269 269 270 269 270 269 269 271 274 276 276 276 277 277 278 279 279 280 280 279 278 279 280 281 281 281 281 282 282 282 283 283 283 283 283 279 279 280 280 280 281 281 281 282 283 283 283 284 284 284 283 283 284 284 284 285 285 284 284 284 283 283 283 283 283 282 282 281 280 280 280 279 279 279 279 278
263 264 265 266 266 267 268 268 268 268 268 268 268 268 268 268 268 268 271 274 275 276 276 277 277 278 278 278 278 278 278 279 279 280 280 280 281 281 281 281 282 282 282 279 278 278 279 280 280 281 281 281 282 283 283 283 283 283 284 283 283 284 284 285 285 284 284 284 283 283 283 283 283 282 282 282 281 280 280 279 279 279 279 277 277
262 263 264 264 265 266 267 267 267 267 267 267 267 267 268 268 268 268 268 269 270 272 274 275 275 276 276 276 276 277 277 278 278 279 279 279 279 280 280 279 281 282 281 278 279 279 280 280 281 281 282 282 282 283 283 283 283 283 283 284 283 284 284 285 284 283 283 283 283 283 283 283 283 282 281 281 281 280 279 279 278 278 277 277 276
262 263 264 264 264 265 265 266 266 266 266 266 266 267 267 267 268 268 268 267 267 268 268 270 272 274 273 274 275 276 277 277 277 278 278 278 279 279 280 276 276 276 278 278 279 279 280 280 280 281 281 281 282 282 282 282 282 282 282 282 283 283 283 283 283 283 283 283 282 282 283 282 282 282 281 281 280 279 279 278 278 278 277 277 277
262 264 264 264 264 264 265 264 265 265 265 265 266 266 266 267 267 267 267 268 267 267 267 268 269 271 273 274 275 276 276 276 277 277 277 277 278 278 274 273 274 275 275 277 278 279 280 280 280 280 280 281 281 281 282 282 282 282 282 282 282 282 282 282 283 283 283 283 282 282 282 282 282 282 282 281 280 279 279 278 278 278 278 277 277
262 263 263 263 263 263 263 263 263 264 265 265 265 265 266 266 267 267 267 266 267 267 267 268 268 269 271 272 273 274 275 275 275 275 275 276 276 274 273 273 273 274 275 276 277 278 278 279 280 280 280 280 281 281 282 282 282 282 282 282 282 282 282 282 282 282 282 282 282 282 282 282 282 282 281 280 280 279 279 279 278 278 278 278 277
260 261 261 261 261 262 262 263 264 265 264 265 265 265 265 265 266 266 266 266 266 267 267 267 269 268 268 268 271 271 270 272 272 272 272 273 272 272 272 273 273 274 274 276 277 277 277 278 279 279 280 280 280 281 281 281 282 282 282 282 282 282 282 282 282 282 282 282 282 282 282 282 282 282 281 280 279 279 279 278 278 277 277 277 277
261 261 262 262 262 262 263 263 263 264 264 264 265 265 265 265 265 265 266 266 266 266 267 267 267 267 267 268 268 269 268 267 266 266 268 269 270 270 270 270 271 271 272 272 273 273 273 274 275 276 277 278 279 280 281 281 281 281 281 281 281 281 281 281 281 282 281 281 281 282 282 282 282 282 282 281 280 279 279 278 278 277 277 276 277
261 261 262 262 262 263 263 263 263 263 264 264 264 264 264 264 265 265 265 265 265 265 266 266 266 266 267 267 267 267 265 265 265 266 267 267 267 268 268 268 268 268 269 269 270 270 270 271 273 274 275 277 279 280 281 281 281 281 281 281 281 280 281 281 281 281 281 281 281 281 281 281 282 281 281 281 280 280 279 278 278 278 277 277 277
261 261 261 262 262 262 262 263 263 263 264 264 264 264 264 265 265 265 264 264 264 265 265 265 265 266 266 267 268 268 265 265 265 265 266 266 266 266 266 266 266 266 267 267 267 267 268 268 269 271 274 276 275 275 276 277 278 278 279 280 280 280 280 281 281 281 281 281 281 281 281 281 281 281 280 281 281 280 279 279 278 277 277 277 277
260 261 261 262 263 262 262 262 263 264 263 263 263 264 264 264 264 264 264 264 264 264 264 264 265 265 266 266 267 267 265 265 265 265 265 265 265 265 265 265 265 265 265 265 265 265 266 266 267 269 270 271 271 271 272 272 272 273 276 277 278 279 279 279 280 280 280 280 280 280 280 281 281 281 281 281 280 280 279 278 278 277 277 277 276
259 260 261 262 261 262 262 262 263 262 263 263 263 264 264 263 263 263 263 263 263 263 263 263 264 264 265 266 266 266 264 264 264 264 264 264 264 264 264 264 264 264 264 265 265 265 265 265 266 267 268 268 268 268 269 269 269 270 271 272 275 276 276 276 277 277 278 279 279 279 279 280 280 280 280 280 280 279 279 278 277 277 276 276 276
260 261 261 261 261 262 262 262 262 262 262 263 263 263 263 263 263 263 263 263 263 263 263 263 263 263 263 264 264 264 263 263 263 263 263 263 263 263 263 263 264 264 264 264 264 264 264 264 264 265 266 267 267 268 268 268 268 268 268 269 270 271 272 272 274 275 276 276 277 277 277 277 277 277 277 278 278 277 277 276 276 275 275 275 274
260 260 260 260 261 261 261 262 262 262 262 262 262 262 263 262 262 262 263 262 263 263 263 263 263 263 263 262 262 262 262 262 263 263 262 262 262 262 262 263 263 263 263 263 264 263 263 263 263 264 264 265 266 267 267 267 267 267 267 267 267 267 268 270 271 273 275 275 276 276 276 276 276 276 276 276 276 276 275 275 274 273 274 273 273
260 260 260 260 260 261 261 261 262 261 261 261 261 261 262 262 262 262 262 262 262 262 262 262 262 262 262 262 262 262 262 261 262 262 262 262 262 262 262 262 262 262 262 262 263 263 263 263 263 263 263 264 265 266 266 266 266 267 267 267 266 266 267 268 271 271 273 274 275 275 275 274 274 274 274 275 275 275 274 274 274 273 273 273 272
258 258 259 260 260 260 260 261 260 260 260 261 261 261 261 261 261 262 262 262 262 262 261 261 261 261 261 261 261 261 261 261 261 261 261 261 261 261 261 261 261 261 261 262 262 262 262 262 262 262 263 264 264 265 265 266 266 266 266 266 266 266 266 266 268 269 271 272 273 274 274 274 274 274 273 273 273 273 273 273 272 272 272 272 272
258 258 259 259 259 259 259 260 260 260 260 260 260 260 260 261 261 261 261 261 261 261 261 261 261 261 261 261 261 261 261 261 261 261 261 261 261 261 261 261 261 261 261 261 261 261 262 262 262 262 262 263 264 264 265 266 266 266 266 266 266 266 265 265 266 267 269 271 272 272 272 272 272 272 272 272 272 272 271 271 271 271 271 271 271
257 258 258 259 259 259 259 259 259 259 259 259 259 259 260 260 260 260 260 260 260 260 260 260 260 260 260 260 260 260 260 260 260 260 260 260 260 260 260 260 260 260 260 260 260 261 261 261 261 261 262 262 263 264 265 266 266 266 265 266 266 266 265 265 265 265 266 270 271 271 271 271 270 270 270 271 271 271 270 270 270 270 270 270 270
257 257 257 258 258 258 259 259 259 259 259 259 258 258 259 259 259 259 259 259 259 259 259 260 259 259 259 259 259 259 259 259 259 259 259 259 260 259 259 259 259 259 259 260 260 260 261 261 261 261 261 261 262 263 264 265 265 265 265 265 266 265 265 265 265 264 265 267 268 269 270 270 270 269 269 269 269 269 269 269 269 269 269 269 269
256 256 256 257 257 257 257 257 257 258 258 258 257 257 258 258 258 258 258 258 258 258 259 259 259 259 259 259 259 259 259 259 259 259 259 259 259 259 259 258 258 258 259 259 259 260 260 260 260 260 261 261 262 262 263 263 264 265 265 265 265 265 264 264 264 264 263 264 266 267 267 267 267 267 267 267 267 267 267 267 267 267 267 267 267
Wind_Speed
2 2 1 2 2 2 2 3 2 2 2 2 2 2 2 2 2 3 3 3 4 4 5 5 5 5 6 6 6 6 6 6 6 6 6 7 6 6 7 7 8 8 8 8 6 6 7 9 8 8 7 8 7 7 8 8 8 9 9 10 11 10 10 11 15 19 13 7 10 9 6 6 6 7 9 7 7 8 10 10 10 10 10 11 12
1 1 1 1 2 2 2 2 2 1 1 1 1 1 1 2 2 3 3 3 3 4 5 5 5 5 6 6 6 6 7 7 5 6 7 7 6 5 6 7 8 9 8 8 8 6 6 7 8 9 8 8 8 9 9 9 9 9 10 9 10 10 9 11 14 13 20 8 8 8 6 5 10 7 10 9 9 7 9 10 9 10 10 10 10
2 2 2 2 3 2 2 1 1 1 1 1 1 1 2 2 2 3 3 3 4 4 4 5 6 6 6 6 6 6 7 6 5 5 7 8 8 7 6 6 7 8 9 9 7 5 6 7 8 8 7 8 9 9 9 9 8 10 11 9 11 11 10 11 11 15 17 17 9 10 10 7 10 9 8 9 8 7 9 11 11 9 9 10 10
3 2 3 3 3 3 3 2 2 1 2 3 3 2 2 2 2 2 3 3 3 3 4 5 5 5 6 6 6 6 7 7 6 5 7 7 7 8 7 6 7 8 8 8 7 7 8 9 10 8 8 10 10 9 9 8 9 10 11 11 11 13 11 10 13 13 14 16 13 9 8 6 7 7 5 4 7 8 9 9 7 10 10 9 10
3 3 3 4 4 4 4 3 4 4 4 3 3 3 2 2 2 2 2 2 3 3 3 3 4 4 5 6 6 6 7 7 7 7 7 6 7 7 7 7 7 8 8 8 8 8 9 10 10 8 8 10 10 9 8 9 9 9 10 10 10 11 10 10 11 11 13 16 16 10 7 9 6 5 5 7 6 8 6 8 9 9 9 10 9
3 4 4 4 5 5 5 4 4 4 3 3 3 3 2 2 2 2 2 2 3 2 3 2 2 4 5 6 6 6 6 5 6 6 7 7 7 7 7 7 7 8 8 8 8 8 9 10 10 9 10 11 11 9 8 10 9 10 10 10 10 9 10 10 10 11 12 15 14 15 9 10 10 7 6 8 8 7 7 7 6 7 7 10 11
4 5 5 5 5 5 5 5 4 4 3 3 3 3 3 3 3 2 2 2 2 3 2 2 2 2 4 4 5 6 5 5 6 6 7 7 7 6 7 7 7 7 8 9 9 9 9 10 10 10 11 11 11 10 9 10 10 11 11 12 11 10 11 10 10 11 13 14 15 13 13 11 8 11 5 8 9 9 9 5 9 9 10 11 12
5 5 5 6 6 5 5 4 5 4 3 4 5 5 4 4 4 4 3 3 3 3 3 4 3 3 4 4 4 5 5 5 6 6 6 7 6 6 7 7 8 8 9 9 9 10 11 11 11 11 11 11 10 10 9 10 9 11 11 9 10 10 11 9 10 10 11 12 13 13 11 12 8 7 1 4 6 7 7 9 13 9 9 10 13
5 6 6 7 6 6 5 5 5 5 5 6 6 6 5 5 4 4 3 3 3 3 3 3 4 4 4 4 4 3 4 4 4 4 5 5 6 7 7 7 8 8 8 9 9 10 10 10 11 11 11 13 15 15 13 12 10 11 11 9 10 10 10 9 9 10 10 11 13 11 11 12 12 9 8 7 10 12 8 9 11 10 7 8 9
6 7 7 6 6 6 5 5 4 4 5 6 5 5 4 4 4 3 3 3 3 3 3 4 4 4 5 5 4 4 4 4 5 9 8 7 7 7 8 8 8 9 9 10 10 10 10 10 10 13 15 16 17 18 18 19 19 16 14 9 9 9 9 10 11 10 10 12 13 12 12 15 13 10 12 12 8 8 7 8 11 11 7 9 7
6 6 6 5 5 4 3 3 2 3 4 4 3 4 4 3 3 2 3 3 3 3 2 3 3 3 4 5 5 4 5 5 8 9 10 10 8 8 8 9 8 9 9 10 11 10 10 10 10 11 12 13 15 18 19 20 20 22 23 21 17 13 11 12 12 10 10 12 12 11 13 16 17 11 11 10 8 9 10 10 10 7 8 9 13
6 6 5 4 3 2 1 2 2 3 3 3 2 2 2 1 1 1 1 2 2 2 3 3 3 4 4 5 5 5 5 7 10 10 10 10 9 8 8 8 8 8 9 10 9 9 10 10 9 7 9 10 11 11 14 18 20 21 22 22 22 23 21 16 14 12 11 11 13 15 13 15 15 10 10 8 8 8 10 9 10 9 10 11 12
6 5 4 3 2 2 2 3 3 3 3 4 2 2 2 2 2 2 2 2 2 3 2 3 3 4 4 5 6 6 6 7 9 10 10 10 11 9 7 8 9 9 9 10 10 10 9 9 9 8 8 12 11 11 12 13 15 19 21 22 23 23 23 25 24 18 12 13 14 16 16 14 13 15 9 9 6 10 8 9 10 10 12 12 13
5 4 3 3 3 3 3 3 4 4 4 3 4 3 4 3 4 3 3 3 3 3 3 4 4 4 4 6 7 7 8 8 10 11 12 12 11 10 8 9 9 10 11 10 10 10 10 9 9 10 8 8 9 10 11 12 12 11 12 12 12 16 20 24 24 24 20 16 16 18 20 13 13 14 9 7 9 11 10 12 11 12 13 15 15
4 3 3 4 4 4 5 5 5 5 5 4 4 4 4 4 4 4 3 3 4 4 4 4 4 4 5 4 6 8 8 12 13 13 13 14 12 10 8 8 9 10 10 10 11 11 10 9 10 12 12 10 9 9 10 11 9 10 11 12 13 13 13 13 13 13 14 15 16 18 20 17 15 14 12 8 11 12 11 13 14 14 14 9 6
4 4 5 5 5 6 6 6 6 6 6 4 5 5 5 5 5 4 3 3 3 3 4 4 5 6 6 5 6 8 8 12 14 14 14 13 13 8 7 8 9 10 11 11 10 10 9 9 10 12 12 12 13 15 13 10 9 12 13 13 13 13 13 14 14 14 15 14 14 16 16 17 16 14 13 12 9 8 7 7 6 7 6 8 13
5 5 6 6 6 6 6 6 4 5 4 5 6 5 5 6 4 3 4 4 4 4 5 5 5 5 6 6 6 8 9 9 11 13 13 14 10 7 6 7 8 10 11 11 10 10 10 9 10 11 12 13 14 14 14 12 10 13 13 14 14 13 14 12 13 19 23 23 23 25 25 25 25 23 22 23 16 9 7 8 12 8 7 11 12
6 6 6 6 6 6 6 6 4 4 4 5 5 4 5 4 3 3 4 5 5 5 5 5 4 4 5 7 6 8 10 10 11 13 13 12 10 8 7 7 9 9 10 11 9 9 11 15 14 12 13 14 16 16 15 11 10 12 13 14 16 16 16 13 8 11 17 20 23 25 25 25 25 25 24 23 21 15 10 14 14 7 11 14 13
6 5 5 5 5 5 3 3 3 4 4 4 4 5 5 4 4 4 4 5 6 4 4 5 6 6 5 8 10 10 10 11 11 12 13 11 8 6 6 6 9 9 9 10 10 9 10 10 14 13 13 16 20 19 18 13 10 12 12 12 15 17 18 13 9 12 10 10 11 13 15 18 17 15 15 21 21 18 14 15 11 10 13 13 12
5 4 4 4 4 4 3 3 4 4 4 4 4 4 4 4 4 5 5 4 4 4 5 6 9 9 6 6 7 6 8 9 9 10 11 11 10 6 5 6 9 10 10 10 11 11 10 10 12 14 15 17 18 19 18 17 12 11 11 12 14 19 16 10 10 11 11 12 13 12 14 12 12 11 11 12 13 14 14 13 13 12 13 13 12
4 4 4 4 3 4 4 4 5 5 4 4 4 4 3 3 5 5 6 3 4 5 6 6 8 9 7 6 6 7 6 8 10 14 12 11 10 8 5 7 7 8 10 12 10 11 11 11 10 14 15 14 15 16 17 17 15 12 12 14 15 17 15 13 15 16 13 13 14 13 12 11 10 10 10 10 10 10 11 13 13 13 13 13 13
4 4 3 3 3 4 4 4 5 4 4 4 4 5 4 4 4 4 3 4 7 8 6 6 8 10 10 9 7 8 8 10 9 12 14 13 12 11 7 7 8 8 10 11 12 11 11 11 11 15 19 18 17 17 18 18 19 13 16 21 23 23 18 14 13 13 12 12 12 12 12 11 10 10 10 10 11 12 12 12 12 13 14 14 15
4 3 3 4 4 4 4 4 4 3 3 4 5 5 4 3 5 4 4 5 7 8 8 7 8 9 10 9 8 8 8 9 12 11 12 14 15 13 13 11 11 9 9 11 12 12 11 12 13 18 19 19 18 20 24 30 24 18 27 26 25 25 20 13 13 13 13 12 12 13 13 12 11 11 11 12 12 12 11 11 11 11 12 13 13
3 4 4 4 4 3 4 4 4 3 4 5 4 5 5 6 5 3 5 5 5 8 7 7 8 9 10 11 11 10 9 8 11 14 12 12 14 15 11 12 12 9 9 10 11 11 13 13 14 21 23 24 26 27 28 27 21 27 30 31 27 22 14 13 13 13 13 13 14 13 13 13 12 12 12 11 10 9 9 10 10 11 12 11 12
4 4 4 4 4 3 4 3 4 4 5 5 5 5 6 6 5 5 5 4 5 5 7 6 7 8 9 10 10 10 10 10 10 12 14 13 13 14 14 14 13 14 11 10 12 12 15 23 26 26 26 26 30 31 27 26 28 25 25 24 22 14 14 13 13 12 13 14 14 14 14 14 13 12 10 9 8 6 7 8 9 10 10 11 11
3 3 4 4 4 4 6 4 4 4 4 4 4 4 5 6 5 5 4 4 5 5 7 7 6 8 8 9 11 11 12 11 11 10 9 10 9 8 10 14 16 16 16 15 20 23 24 25 27 26 23 21 17 15 15 17 23 26 27 24 14 13 12 12 12 13 13 13 13 14 14 12 12 11 10 8 8 9 7 8 8 8 8 8 8
3 2 3 3 4 4 5 5 6 5 4 4 4 4 4 4 4 4 4 4 5 5 6 6 7 7 8 10 10 11 12 12 12 11 10 9 8 10 13 13 16 17 13 11 12 12 15 17 17 22 23 28 29 27 25 23 19 16 13 11 10 11 12 12 12 12 13 13 13 13 12 12 10 9 9 9 9 9 7 8 7 9 8 8 9
2 2 3 3 3 4 4 6 6 5 5 4 4 4 3 3 4 4 4 5 6 6 6 6 6 7 9 10 11 11 12 12 12 11 10 12 13 13 13 12 12 11 13 13 12 14 16 18 21 17 15 14 14 12 12 11 11 11 11 9 9 9 11 14 15 13 12 11 12 13 12 11 11 10 9 8 9 9 7 8 9 9 8 8 7
1 2 2 2 3 3 3 3 4 4 5 4 4 4 4 4 5 5 4 3 3 5 7 8 7 7 8 10 11 12 13 14 12 14 19 24 20 17 15 13 14 14 17 25 20 17 16 16 15 16 14 14 14 14 14 12 11 11 11 10 9 9 8 8 9 11 11 12 14 14 13 11 11 9 8 9 9 9 7 8 8 8 7 8 11
2 2 3 3 3 4 4 3 3 3 4 5 6 5 6 8 7 7 6 6 9 12 10 9 10 10 11 11 10 11 12 14 24 32 30 29 29 29 27 28 26 23 26 31 23 17 16 15 15 15 14 13 14 14 14 13 12 12 11 11 10 9 9 10 10 11 12 13 12 11 11 11 11 10 9 10 9 8 8 10 9 9 9 9 10
1 2 3 3 4 3 3 3 3 3 4 5 6 8 9 4 5 11 14 14 13 13 14 17 19 17 13 13 14 21 24 25 26 26 29 30 32 32 31 30 30 29 29 22 16 15 16 16 15 14 14 14 14 14 14 13 13 13 13 11 10 11 11 11 11 11 12 11 10 10 10 10 11 10 10 10 10 8 7 8 9 9 10 10 10
1 2 2 2 3 3 2 2 3 3 4 4 5 7 7 11 11 4 6 10 14 15 14 15 16 15 16 15 15 13 18 23 27 28 29 30 29 30 31 33 33 32 29 29 19 16 15 15 14 14 14 14 14 14 14 13 12 12 12 12 13 12 13 12 11 10 10 10 10 11 11 11 10 10 10 9 9 8 8 8 9 9 9 9 10
2 2 1 2 2 3 2 2 3 4 5 6 6 6 7 7 10 14 11 7 10 14 16 12 11 12 15 16 19 19 23 25 28 28 28 28 29 29 31 34 33 34 33 19 13 15 14 14 14 13 13 13 13 13 13 13 14 14 13 14 14 12 11 10 9 10 10 11 11 11 11 10 10 10 10 9 9 9 9 9 9 9 9 9 8
1 1 1 2 2 1 2 3 4 4 4 5 5 6 6 6 8 9 12 15 14 6 3 4 11 16 18 21 21 20 20 22 24 27 28 28 29 29 29 25 31 32 24 15 13 13 13 13 13 13 13 13 14 14 14 14 15 15 14 14 13 12 11 10 11 12 11 11 11 11 11 10 10 9 9 9 9 8 8 8 8 9 9 9 9
2 3 2 1 1 2 2 3 3 4 4 4 5 6 6 7 7 8 9 11 12 13 13 11 10 14 15 17 20 23 22 23 24 25 27 28 28 28 27 17 16 14 14 12 12 12 13 13 14 14 14 15 15 15 15 14 13 13 14 14 13 13 13 12 11 11 11 11 11 11 10 10 10 10 10 9 8 8 8 8 8 9 10 9 8
2 1 0 2 2 2 2 2 3 3 4 4 5 6 7 7 7 8 8 9 10 12 12 11 11 14 20 18 20 23 26 26 25 26 26 26 26 26 15 13 13 13 13 13 12 13 13 14 15 15 15 16 15 15 15 15 14 14 13 13 13 13 13 13 12 11 11 10 10 11 11 10 9 9 8 9 9 9 8 8 8 9 9 9 8
0 1 2 2 2 2 2 2 3 3 5 6 6 6 6 6 7 7 8 8 10 10 11 12 12 12 12 9 14 20 24 25 26 24 23 22 25 17 12 13 13 14 14 13 13 13 14 13 14 15 15 16 15 15 14 14 14 14 14 14 14 14 13 11 11 11 11 10 10 10 10 10 9 8 8 8 7 7 7 7 7 9 9 9 8
1 1 2 1 2 2 2 2 3 5 5 5 5 5 5 6 7 7 8 9 10 10 11 11 11 11 13 13 17 14 17 22 23 17 14 15 13 12 13 13 14 14 14 14 14 14 14 14 14 15 16 16 16 15 15 14 14 13 13 13 13 13 16 15 15 13 12 11 10 9 9 8 8 7 7 8 7 7 7 7 7 7 7 8 7
1 1 2 3 3 3 2 3 3 3 3 4 4 5 6 6 7 7 7 8 9 9 9 10 10 10 11 12 13 15 18 14 14 14 14 12 11 11 12 13 14 15 15 15 16 16 15 15 15 15 15 15 16 15 15 15 13 14 13 13 12 12 11 10 11 10 10 9 9 8 8 8 7 7 7 6 6 6 7 7 7 7 7 7 8
0 0 1 2 2 3 3 3 3 3 4 4 4 4 5 6 6 7 7 8 8 8 8 9 9 9 10 10 12 14 14 14 13 13 13 13 12 12 11 12 13 14 15 16 15 14 15 14 14 13 15 15 15 14 14 14 12 11 11 11 11 11 10 10 10 9 8 7 7 7 7 8 7 6 6 6 6 6 6 6 7 7 8 7 7
0 1 2 3 3 2 3 3 3 3 3 4 4 5 5 6 6 7 7 7 8 8 8 8 8 8 9 12 19 19 12 12 12 12 12 12 12 11 11 11 12 13 13 14 14 14 14 14 14 14 14 13 13 13 12 12 12 11 11 11 10 10 9 9 9 8 8 7 7 7 7 7 7 7 7 6 7 6 5 5 5 6 6 5 6
1 1 1 1 1 1 2 3 3 4 4 5 5 5 5 6 6 6 7 7 8 8 8 8 8 7 11 18 17 19 12 9 10 11 11 10 10 10 10 10 10 11 12 12 13 14 13 14 13 13 13 13 13 12 11 11 11 11 11 10 10 9 9 9 8 8 8 7 6 6 5 5 6 6 5 4 3 3 3 4 4 4 5 5 5
2 2 1 1 1 2 2 2 2 3 3 3 3 5 6 6 6 7 7 8 7 8 8 8 8 8 9 13 14 15 8 8 9 10 10 10 10 10 10 10 10 10 10 11 11 11 12 12 12 12 12 12 12 12 11 11 11 11 10 11 10 10 10 9 9 9 9 8 7 6 6 5 5 4 3 0 2 2 3 4 4 4 5 5 6
2 2 1 2 2 2 3 2 2 3 2 4 6 6 6 6 6 7 7 7 7 7 7 7 7 7 7 8 9 8 8 8 8 9 10 10 10 10 10 10 10 11 11 11 10 10 11 11 11 11 11 11 11 11 10 10 10 10 11 11 10 11 10 10 10 9 8 7 6 6 6 6 5 5 5 4 3 4 4 5 5 5 5 5 6
2 1 1 1 2 2 2 2 2 2 4 5 4 4 6 4 5 5 6 7 8 7 7 7 7 6 7 6 6 7 7 8 9 9 9 9 10 10 10 10 10 11 10 10 10 11 10 11 11 11 12 11 11 11 10 10 10 9 9 10 10 10 11 11 10 10 9 8 7 6 5 5 5 5 5 5 5 5 5 5 5 5 6 5 6
1 1 1 1 2 3 2 2 3 2 2 3 4 4 4 5 5 5 6 7 7 7 7 7 6 7 7 6 6 7 6 7 8 9 9 8 8 9 9 9 10 10 10 10 11 11 10 10 10 10 11 11 11 10 10 10 10 10 10 9 10 9 9 10 9 9 9 9 8 6 5 5 5 4 5 4 4 5 5 5 5 4 5 5 6
1 1 1 2 2 3 3 3 2 2 2 3 3 4 5 5 5 6 7 7 7 8 6 6 6 6 6 6 6 6 6 7 7 7 7 8 8 8 9 10 10 10 11 11 10 10 11 11 10 10 11 11 11 11 10 9 9 9 9 9 9 11 10 10 9 9 8 9 8 7 6 5 5 5 6 6 5 6 6 5 5 6 5 5 6
1 1 2 2 2 2 2 2 2 4 4 4 4 5 5 6 6 7 6 6 6 6 5 5 5 6 7 6 6 6 6 6 6 7 7 7 7 8 9 9 10 10 10 10 10 9 9 9 10 10 11 11 11 10 10 10 9 9 9 9 9 12 15 16 9 10 9 9 7 7 7 7 6 6 6 6 6 5 6 6 6 6 6 6 5
1 1 2 2 2 2 2 2 3 2 3 3 4 5 6 6 6 6 6 6 6 6 6 6 5 5 5 6 7 7 6 7 6 7 6 6 7 7 7 8 9 9 9 9 9 9 10 10 10 9 10 10 10 11 11 10 10 10 11 10 15 24 22 20 12 11 14 9 8 7 7 6 7 7 7 7 7 6 6 6 6 6 6 6 6
2 2 2 2 3 2 3 2 2 2 3 4 4 5 6 6 6 6 6 6 6 6 6 6 6 5 6 6 7 7 6 6 7 7 7 7 7 7 7 8 8 8 9 10 9 9 9 8 9 10 10 10 10 10 10 10 10 11 10 13 22 22 22 22 18 19 14 8 8 7 6 6 6 6 6 6 6 6 6 6 6 5 6 6 6
3 2 2 2 2 2 2 2 2 3 3 4 4 6 6 6 6 6 6 6 6 6 6 5 6 6 6 6 7 7 7 7 7 7 7 7 6 7 7 7 8 8 8 8 8 8 8 8 8 8 8 10 10 10 9 9 9 11 16 21 22 22 22 20 14 16 19 13 7 8 7 7 6 7 6 6 6 6 6 7 6 6 6 5 5
Wind_Direction
63 63 80 106 123 143 135 142 150 175 183 211 254 258 270 283 285 293 317 302 310 301 291 286 286 283 280 277 275 275 272 269 263 261 260 263 264 269 273 269 260 258 259 255 236 227 233 238 241 246 250 252 248 249 244 245 243 245 242 244 244 237 238 247 258 269 270 228 264 260 246 215 239 205 236 226 227 223 222 227 228 225 226 230 233
69 91 70 73 96 95 109 97 124 111 144 157 242 293 298 310 319 321 311 310 306 305 305 302 300 296 293 294 292 284 276 273 275 271 265 263 258 252 262 266 274 270 261 255 245 237 238 244 246 247 238 246 249 249 249 250 245 244 242 237 243 242 229 244 254 263 275 257 250 259 245 189 248 187 219 224 231 215 223 224 225 222 226 228 233
118 127 127 125 114 108 97 108 76 121 115 123 78 6 349 335 339 324 318 314 316 311 306 304 305 302 292 291 295 294 291 288 285 276 270 268 265 264 261 258 258 262 265 269 271 263 250 245 251 249 245 243 242 246 245 246 242 244 246 241 246 244 238 234 249 259 265 271 251 257 249 225 226 241 220 229 234 213 224 225 221 224 226 228 233
107 111 116 107 115 119 101 87 90 65 90 82 63 41 10 352 351 332 319 318 313 310 309 306 307 305 300 294 289 289 290 291 292 293 283 283 284 283 281 271 265 267 270 268 265 265 263 265 259 256 256 256 253 247 244 241 240 243 245 242 244 247 242 238 237 250 265 274 267 242 263 248 247 242 245 225 225 225 224 235 226 230 229 226 232
113 122 125 112 95 86 77 71 61 54 50 56 56 51 35 17 14 334 332 319 321 321 316 324 311 308 304 298 292 288 285 283 282 280 278 278 280 280 280 280 276 270 265 262 262 260 259 255 260 252 249 250 253 246 245 241 240 241 245 245 245 248 248 242 245 246 258 264 273 260 251 261 252 239 202 215 229 231 230 224 223 230 232 234 237
98 93 82 88 77 65 60 55 50 49 45 50 52 48 41 30 19 6 5 345 336 323 311 310 301 296 297 294 291 288 288 288 285 284 281 281 277 275 274 269 267 267 267 263 258 253 253 255 255 253 250 249 255 252 246 246 244 244 246 249 247 250 249 247 245 250 252 261 267 277 259 253 262 237 198 209 220 230 235 241 246 236 231 238 235
66 71 66 69 68 54 49 44 39 38 34 35 42 42 37 29 22 18 7 346 339 334 334 316 304 297 287 288 290 292 289 281 279 276 277 276 274 271 273 271 267 265 262 262 261 258 255 255 255 250 250 250 253 253 249 248 243 245 241 245 247 245 250 249 245 247 250 258 263 261 270 261 242 262 210 198 216 223 229 226 243 226 228 233 244
63 65 62 61 56 46 40 33 35 28 17 26 35 35 27 25 18 9 5 357 355 348 333 330 319 309 303 295 289 293 296 294 288 283 281 280 281 278 274 269 267 264 263 260 259 258 257 257 254 252 249 251 251 253 245 250 247 249 243 238 244 241 248 251 248 247 250 253 257 265 258 266 258 240 146 161 218 242 221 222 243 236 217 226 231
63 58 55 51 42 34 28 24 22 19 18 27 27 23 19 16 11 1 4 351 345 338 324 321 311 303 295 290 289 285 282 281 279 276 277 275 278 278 271 264 262 266 266 264 260 257 257 254 255 253 251 251 250 250 250 247 249 253 250 232 240 238 244 246 248 248 251 254 261 258 261 262 253 241 225 212 211 230 213 214 244 249 237 237 235
55 54 51 44 36 30 27 22 16 19 23 26 22 13 13 10 1 360 353 351 338 335 325 314 305 300 302 301 296 288 276 264 254 251 249 262 278 283 284 280 277 272 270 270 266 261 260 260 259 253 251 250 250 251 251 250 249 250 258 250 242 240 240 243 246 244 249 254 255 258 258 257 256 235 239 235 218 229 220 209 232 244 241 252 259
60 53 56 42 31 25 23 7 14 30 28 27 17 10 8 358 345 342 342 339 321 317 307 299 299 297 297 297 291 281 270 264 263 259 259 255 259 272 276 277 273 272 269 268 270 271 266 263 265 260 252 250 251 250 250 250 249 249 251 252 250 250 254 250 248 242 244 251 258 254 251 260 259 245 239 244 214 211 220 218 231 232 225 233 253
71 65 55 48 36 26 19 11 37 39 33 15 9 2 352 334 344 339 330 326 320 309 298 286 288 287 281 283 281 278 276 268 264 269 270 269 262 264 272 273 271 268 269 267 269 271 272 272 265 262 257 254 257 256 248 245 246 247 249 250 250 248 245 246 253 253 243 248 256 253 253 251 262 255 245 233 229 215 221 216 224 220 226 230 240
69 68 57 51 38 26 12 28 35 31 20 7 2 356 358 347 7 345 339 329 305 308 301 298 291 293 287 288 291 287 284 277 274 275 276 276 276 271 271 270 271 270 268 268 268 269 269 272 275 262 261 257 253 253 258 260 251 246 247 249 249 247 247 247 245 245 253 250 252 259 251 252 258 257 238 235 219 230 219 219 221 218 224 229 238
72 70 60 43 30 23 17 22 24 19 10 8 4 2 7 9 357 338 333 335 333 322 312 308 301 304 306 302 297 296 291 296 297 294 291 288 283 278 270 271 269 268 267 267 268 270 266 268 272 273 266 254 251 251 254 256 260 261 256 253 251 250 247 246 248 246 243 245 249 255 259 251 248 260 249 220 221 231 224 229 217 222 225 228 229
71 66 56 37 28 21 18 19 15 8 6 5 2 4 5 355 354 345 343 340 334 331 326 324 316 305 299 291 293 293 291 296 300 299 298 298 293 285 277 275 273 270 268 265 265 266 268 267 268 273 275 269 255 249 255 258 261 261 260 260 258 256 253 247 240 240 242 242 245 250 260 259 255 257 259 238 230 234 226 230 223 222 229 242 266
61 46 43 30 23 16 15 12 6 3 360 358 360 358 358 349 341 334 331 326 316 305 306 302 303 305 299 299 295 288 286 291 295 298 298 299 300 297 284 280 278 277 274 271 267 269 269 266 269 272 273 273 269 258 253 260 267 268 266 265 265 262 259 252 245 240 240 240 243 249 254 258 256 252 251 249 245 246 249 250 249 233 224 230 238
45 37 35 24 17 15 12 8 358 355 352 352 351 347 344 337 326 324 315 307 301 297 289 283 278 282 286 282 282 284 285 286 286 287 289 292 296 289 287 281 278 277 276 277 275 272 268 264 265 269 274 274 274 271 266 261 263 266 267 269 270 271 268 265 245 243 245 244 247 250 254 258 259 257 255 252 248 235 231 234 232 208 203 233 237
39 30 28 18 12 9 6 4 350 346 343 343 332 324 320 302 295 315 304 303 294 290 284 283 277 273 280 284 277 284 287 284 276 279 280 274 274 282 282 281 277 278 281 280 278 273 269 266 257 264 270 274 279 277 273 266 263 264 268 270 275 274 273 267 257 252 248 246 247 249 252 256 259 261 260 257 253 241 218 229 232 195 222 230 240
31 23 15 10 9 2 353 350 338 334 333 319 318 313 307 304 307 311 305 298 289 287 298 303 302 295 282 279 278 272 277 282 270 264 268 254 259 269 273 279 283 283 288 289 288 282 278 278 268 256 258 270 275 276 274 267 260 260 263 267 268 271 268 273 273 265 261 256 252 254 255 255 257 257 258 258 253 247 235 237 238 217 228 234 239
19 12 8 6 360 353 340 343 337 331 317 316 312 306 306 312 321 315 305 291 299 315 311 304 301 298 288 279 281 268 277 286 282 266 262 250 237 247 265 277 280 290 292 292 294 294 290 284 278 275 268 264 268 273 273 267 259 257 259 259 261 263 269 284 266 264 267 262 262 254 254 251 250 247 249 252 250 243 242 237 234 227 229 234 228
12 8 360 357 354 345 345 348 333 320 315 311 311 305 300 309 307 308 304 295 305 304 300 295 294 298 302 300 291 292 278 287 297 299 293 274 250 238 262 260 270 279 289 291 290 294 295 292 292 284 283 282 282 283 281 275 266 258 255 255 252 263 277 277 277 270 266 264 263 261 260 256 250 246 243 244 243 240 238 235 230 225 225 230 231
360 356 350 348 344 345 343 339 321 312 318 317 318 310 307 296 296 299 298 311 314 313 315 316 316 316 318 317 314 309 307 301 297 299 300 296 284 260 258 262 261 278 281 284 288 286 285 289 291 291 293 291 287 285 285 283 279 272 262 261 264 265 265 267 272 273 268 264 262 261 260 253 249 246 243 240 237 235 234 232 229 226 225 229 229
353 346 348 346 346 338 336 328 316 305 313 323 314 295 290 310 317 299 308 321 320 320 323 325 323 319 318 315 315 314 315 312 307 307 308 305 297 280 257 257 265 265 270 277 279 284 288 287 286 289 292 295 296 296 293 289 286 274 273 272 268 264 264 262 263 266 265 264 262 260 259 256 252 249 243 241 240 236 235 232 232 231 232 236 234
353 348 346 347 341 336 332 315 317 328 335 315 308 316 332 335 330 332 340 324 321 325 324 327 323 321 321 319 319 321 322 319 315 315 316 308 301 291 261 251 255 264 265 273 277 281 287 286 287 290 292 293 293 292 290 286 279 278 277 275 273 270 264 259 256 257 261 262 258 257 257 255 251 246 245 244 246 242 237 232 231 228 230 232 231
354 351 348 338 337 327 321 313 341 345 334 333 332 335 338 344 338 339 334 325 316 313 315 321 322 317 316 313 314 315 317 316 311 311 316 312 300 292 284 283 286 286 282 275 275 278 278 281 284 286 286 285 286 288 286 280 276 274 272 271 270 265 261 256 256 255 255 255 256 260 259 256 252 253 254 252 251 244 234 234 230 229 228 228 229
355 350 340 331 330 335 337 337 351 329 330 343 341 332 326 326 326 325 322 319 321 320 317 314 313 316 310 312 314 314 313 311 310 314 322 318 315 320 321 318 308 301 290 282 278 277 277 278 279 280 282 282 284 284 285 282 280 278 275 273 269 263 256 256 252 251 252 256 257 256 258 262 259 254 251 247 241 237 230 230 230 224 217 215 220
346 345 335 328 336 348 344 349 342 341 348 345 334 322 318 313 310 309 314 320 318 312 309 313 316 316 313 312 311 312 310 309 311 316 322 322 328 327 320 312 306 302 296 293 293 290 288 287 288 286 283 283 280 277 274 276 277 275 273 263 255 251 251 249 251 252 254 255 258 259 260 258 260 258 247 240 238 238 224 226 223 226 214 208 214
353 338 324 338 344 350 351 346 343 337 338 332 322 315 307 306 306 304 319 317 313 310 314 315 317 317 312 312 312 311 305 304 307 314 319 322 318 315 311 306 304 305 303 300 300 298 293 289 286 285 285 283 281 282 277 271 268 271 268 265 258 252 250 249 248 250 251 255 258 261 261 260 257 253 248 239 238 235 218 214 221 224 209 206 212
321 342 348 3 360 1 348 340 338 327 321 311 295 291 299 304 300 290 272 264 273 302 312 304 302 306 307 304 306 305 305 302 302 313 309 307 306 308 309 309 310 305 302 303 302 297 292 288 286 287 285 285 285 283 282 281 277 273 272 269 267 264 261 257 255 252 254 255 254 255 259 259 258 252 245 242 237 232 211 218 216 215 208 202 217
18 23 15 10 12 2 349 338 331 327 321 320 317 301 273 271 275 285 295 285 283 285 287 288 295 303 299 289 287 291 293 297 304 307 307 308 308 306 305 305 303 302 301 303 301 293 287 283 282 282 283 282 282 281 281 281 281 280 276 275 272 270 266 263 258 259 256 253 253 256 258 259 258 253 245 244 243 228 214 209 215 201 204 207 216
44 41 28 23 4 335 325 326 324 322 328 334 329 325 322 303 267 273 279 283 288 291 296 294 294 289 288 295 296 294 295 298 302 306 309 310 310 310 310 308 305 304 305 306 298 290 288 286 284 280 278 278 277 279 280 281 279 280 279 277 273 273 272 266 262 258 257 257 256 256 257 256 256 252 251 246 243 229 219 213 211 203 208 207 214
47 30 32 348 324 314 305 306 324 341 343 345 342 338 336 325 318 276 263 298 304 302 296 295 295 302 308 308 310 307 308 308 311 312 311 310 311 312 312 311 309 308 307 307 297 290 286 285 284 282 282 279 279 279 279 279 280 280 280 279 275 271 270 266 259 256 259 261 262 261 258 256 254 251 248 245 237 231 219 215 206 208 213 211 214
43 11 321 308 300 296 321 351 358 355 351 350 346 343 331 325 321 320 319 300 290 297 306 309 319 321 318 316 314 310 309 310 312 314 315 315 315 315 313 310 308 308 309 302 288 288 285 284 282 281 281 280 280 279 281 282 283 282 278 275 274 273 270 269 267 264 263 264 263 261 258 255 255 253 249 242 235 230 223 218 209 208 209 209 208
308 277 290 283 282 327 5 8 2 354 347 335 325 321 314 310 310 311 313 321 328 319 220 309 328 327 325 321 315 312 310 312 315 317 317 317 316 314 312 308 305 305 305 298 293 287 287 286 285 284 284 283 285 287 286 285 285 285 285 286 287 286 281 276 271 269 268 265 261 259 256 254 252 251 249 243 233 230 224 218 208 206 209 203 202
243 228 219 279 357 17 11 359 350 339 329 317 312 309 305 304 302 302 308 314 314 314 319 322 325 329 322 318 316 317 320 322 322 320 318 317 315 315 314 308 308 312 310 304 299 296 296 295 297 299 298 296 292 290 289 290 294 295 295 293 291 288 284 277 274 272 267 264 261 257 255 254 252 247 247 245 237 226 222 211 206 204 208 206 202
220 206 190 47 37 24 2 347 336 322 309 302 299 292 293 298 299 302 302 300 299 305 306 311 314 318 321 321 321 323 324 326 326 326 324 323 323 326 319 313 309 307 306 303 299 298 298 297 297 297 297 296 293 290 290 290 289 289 289 287 285 285 285 283 279 276 271 266 263 260 258 256 251 248 243 243 235 226 219 210 204 208 208 206 198
197 60 49 37 28 360 337 318 305 292 295 294 287 288 292 294 300 302 299 297 300 301 304 310 317 319 324 325 329 326 325 327 329 329 330 332 331 329 319 315 310 308 305 305 303 300 297 296 298 299 299 297 295 293 292 290 291 290 288 285 285 286 283 283 281 278 276 272 266 261 258 256 252 247 242 240 232 221 217 208 204 206 210 200 190
53 42 43 25 353 320 297 287 281 289 287 279 283 289 295 297 300 299 296 299 301 306 308 315 319 322 326 328 335 332 330 327 328 330 336 338 337 333 329 323 318 315 314 315 318 317 316 316 315 310 307 305 301 299 295 292 292 292 291 290 289 286 285 284 281 277 273 271 269 265 260 256 251 249 243 236 229 220 210 205 202 205 207 199 188
71 3 289 297 294 283 283 293 289 288 286 291 294 293 296 296 298 295 299 301 303 306 309 313 317 320 324 328 329 332 332 334 338 334 335 340 340 338 332 328 324 322 321 321 321 321 320 316 314 313 310 309 307 303 301 300 299 298 297 296 295 293 293 290 286 282 277 272 270 265 263 260 256 251 242 233 226 217 211 207 201 196 195 192 194
5 307 293 282 275 275 276 279 284 282 281 298 295 297 296 295 294 299 303 304 304 306 308 312 315 319 323 327 331 334 332 329 328 329 331 334 338 338 336 332 327 323 322 321 321 321 319 317 317 314 311 306 307 313 319 321 320 315 310 306 304 302 299 296 290 284 279 277 271 270 268 269 267 258 243 234 229 216 210 202 198 195 196 192 194
267 286 278 266 258 287 279 269 269 274 293 292 290 291 290 295 298 300 298 298 300 302 306 307 308 312 319 323 326 329 327 320 320 324 327 329 333 335 336 332 328 325 322 320 319 319 319 318 316 315 319 331 337 333 330 330 330 327 321 318 314 309 307 302 296 287 285 283 280 279 280 280 280 271 251 232 227 216 196 189 186 190 188 185 181
238 260 259 261 270 252 267 272 274 287 288 279 286 291 296 299 298 295 294 296 298 302 305 305 308 311 315 322 326 330 326 316 319 319 320 324 326 329 328 325 322 321 319 317 318 320 320 320 318 322 328 330 332 331 333 335 334 330 328 326 324 326 327 329 332 330 322 310 303 294 296 297 288 268 253 242 228 202 163 168 166 164 164 161 155
238 248 249 282 259 253 262 275 288 281 281 287 292 300 298 294 291 292 293 292 295 300 301 306 311 314 318 324 326 327 326 319 318 318 317 319 321 322 323 322 319 317 315 313 314 318 317 316 319 324 328 327 330 330 331 331 331 331 335 335 338 347 346 346 344 344 341 334 335 341 340 335 332 329 323 49 124 126 129 130 125 134 139 137 135
240 236 254 243 246 253 252 256 268 282 284 297 298 292 290 292 290 290 289 293 294 293 299 302 306 313 313 320 324 327 322 323 318 318 318 320 319 321 321 319 320 318 317 316 319 322 321 321 324 327 327 327 328 330 334 337 340 340 341 340 340 344 345 344 341 339 336 337 340 344 350 351 358 6 16 21 41 83 87 100 107 113 118 116 117
222 233 230 241 254 257 265 272 267 278 294 297 293 289 289 284 287 286 291 292 295 297 298 300 303 306 311 314 319 321 321 320 317 319 319 321 322 322 323 322 322 320 318 316 318 321 323 326 327 329 329 330 331 333 338 338 341 341 342 343 342 343 341 335 332 329 333 336 339 345 352 1 5 11 24 30 34 53 65 73 89 100 102 110 120
214 222 239 258 259 268 264 269 278 290 291 291 291 291 291 289 283 282 286 292 294 296 296 300 301 304 307 309 310 312 313 315 316 316 316 318 318 319 320 323 323 322 320 319 320 320 322 326 329 326 326 325 327 329 331 335 339 341 342 348 346 337 329 323 325 331 336 340 342 344 354 7 21 19 28 46 52 61 70 72 71 74 92 96 102
200 219 238 245 248 257 264 271 276 274 285 286 284 281 282 279 280 284 282 284 288 290 291 297 302 302 305 304 305 301 308 310 311 312 311 311 313 317 320 323 324 323 324 322 321 324 324 325 324 323 322 323 325 328 333 334 335 337 341 345 346 345 344 333 328 335 333 341 348 355 1 10 15 20 25 38 47 54 60 63 68 85 83 94 100
210 226 238 242 251 254 259 266 271 273 269 264 267 273 276 276 278 276 279 280 279 281 283 287 289 293 298 299 300 301 300 299 300 300 304 307 311 315 319 320 322 323 322 322 325 323 324 322 323 326 326 328 330 328 329 334 336 342 343 346 350 350 348 349 340 344 339 341 349 1 10 16 23 26 32 37 46 51 62 63 63 63 74 78 85
225 234 241 243 245 251 256 262 264 269 271 273 277 275 272 275 274 276 277 278 280 282 284 283 285 288 289 293 296 297 297 297 298 302 302 304 305 307 313 315 317 317 317 316 321 326 327 326 327 324 326 324 325 330 331 335 345 350 351 350 351 353 352 355 356 355 344 343 353 357 10 23 28 32 34 40 44 50 58 59 66 71 72 74 81
228 231 242 244 246 251 257 259 262 268 268 272 267 269 273 272 273 274 276 277 282 281 281 282 284 286 288 290 291 291 295 296 296 298 299 299 302 303 306 309 312 314 317 316 317 318 323 323 326 328 327 325 327 330 335 340 347 349 352 352 354 357 357 354 351 357 359 350 351 357 1 19 29 36 34 38 40 51 57 62 61 66 68 74 74
225 230 241 240 248 254 257 257 258 256 258 260 258 264 265 268 269 272 272 273 276 278 280 282 286 285 283 281 285 289 289 287 287 288 290 294 296 300 300 304 309 311 311 312 314 316 319 324 326 325 324 326 327 328 331 338 342 346 349 355 359 0 0 360 357 352 356 356 356 1 14 17 30 33 36 32 43 48 52 56 59 60 63 61 63